TimeCST,TemperatureF,Dew PointF,Humidity,Sea Level PressureIn,VisibilityMPH,Wind Direction,Wind SpeedMPH,Gust SpeedMPH,PrecipitationIn,Events,Conditions,WindDirDegrees,DateUTC
1:56 AM,34.0,30.0,85,29.91,10.0,East,9.2,-,N/A,,Mostly Cloudy,80,2013-03-05 07:56:00
3:56 AM,32.0,31.1,96,29.89,4.0,ENE,8.1,-,0.00,,Mostly Cloudy,70,2013-03-05 09:56:00
4:14 AM,32.0,30.2,93,29.84,3.0,ENE,8.1,-,0.01,Rain,Light Freezing Rain,70,2013-03-05 10:14:00
4:26 AM,32.0,30.2,93,29.84,3.0,ENE,8.1,-,0.01,Snow,Light Snow,60,2013-03-05 10:26:00
4:56 AM,32.0,31.1,96,29.88,2.0,ENE,10.4,-,0.01,Snow,Light Snow,70,2013-03-05 10:56:00
5:07 AM,32.0,30.2,93,29.84,2.0,ENE,10.4,-,0.00,Snow,Light Snow,70,2013-03-05 11:07:00
5:17 AM,32.0,32.0,100,29.83,2.0,ENE,10.4,-,0.00,Snow,Light Snow,70,2013-03-05 11:17:00
5:26 AM,32.0,32.0,100,29.83,3.0,ENE,11.5,-,0.00,Snow,Light Snow,60,2013-03-05 11:26:00
5:56 AM,32.0,32.0,100,29.87,3.0,ENE,11.5,-,0.00,,Overcast,70,2013-03-05 11:56:00
6:56 AM,32.0,32.0,100,29.88,2.5,NE,6.9,-,N/A,,Mostly Cloudy,40,2013-03-05 12:56:00
7:56 AM,32.0,32.0,100,29.87,1.0,NE,8.1,-,0.00,Snow,Light Snow,40,2013-03-05 13:56:00
8:56 AM,32.0,32.0,100,29.87,0.8,North,6.9,-,0.01,Snow,Light Snow,10,2013-03-05 14:56:00
9:56 AM,32.0,32.0,100,29.86,0.8,NNE,5.8,-,0.01,Snow,Light Snow,30,2013-03-05 15:56:00
10:56 AM,32.0,32.0,100,29.85,0.5,NNW,4.6,-,0.02,Fog-Snow,Light Snow,340,2013-03-05 16:56:00
11:14 AM,32.0,32.0,100,29.80,0.2,NNW,4.6,-,0.00,Fog-Snow,Light Snow,330,2013-03-05 17:14:00
11:30 AM,32.0,32.0,100,29.80,0.2,NW,5.8,-,0.01,Fog-Snow,Light Snow,320,2013-03-05 17:30:00
11:39 AM,32.0,32.0,100,29.80,0.2,NW,8.1,-,0.01,Fog-Snow,Light Snow,310,2013-03-05 17:39:00
11:56 AM,32.0,32.0,100,29.85,0.5,WNW,9.2,-,0.03,Fog-Snow,Light Snow,300,2013-03-05 17:56:00
12:56 PM,32.0,31.1,96,29.84,0.5,WNW,16.1,-,0.03,Fog-Snow,Light Snow,300,2013-03-05 18:56:00
1:31 PM,30.2,30.2,100,29.79,0.2,WNW,24.2,29.9,0.00,Fog-Snow,Snow,300,2013-03-05 19:31:00
1:56 PM,30.0,29.1,96,29.84,0.2,WNW,21.9,28.8,0.00,Fog-Snow,Snow,300,2013-03-05 19:56:00
2:56 PM,30.0,28.0,92,29.86,0.2,WNW,21.9,32.2,0.00,Fog-Snow,Snow,300,2013-03-05 20:56:00
3:42 PM,28.4,28.4,100,29.82,0.5,WNW,20.7,-,0.00,Fog-Snow,Light Snow,300,2013-03-05 21:42:00
3:56 PM,29.1,28.0,96,29.88,0.5,WNW,20.7,-,0.00,Fog-Snow,Light Snow,290,2013-03-05 21:56:00
4:56 PM,29.1,28.0,96,29.89,0.5,WNW,19.6,-,0.00,Fog-Snow,Light Snow,290,2013-03-05 22:56:00
5:56 PM,28.0,27.1,96,29.90,0.5,WNW,21.9,28.8,0.00,Fog-Snow,Light Snow,290,2013-03-05 23:56:00
5:57 PM,28.4,26.6,93,29.85,1.0,WNW,23.0,-,0.00,Snow,Light Snow,290,2013-03-05 23:57:00
6:16 PM,28.4,28.4,100,29.85,1.5,WNW,23.0,27.6,0.00,Snow,Light Snow,290,2013-03-06 00:16:00
6:23 PM,28.4,28.4,100,29.86,1.2,WNW,23.0,27.6,0.00,Snow,Light Snow,290,2013-03-06 00:23:00
6:37 PM,28.4,28.4,100,29.86,1.5,WNW,23.0,-,0.00,Snow,Light Snow,300,2013-03-06 00:37:00
6:56 PM,29.1,28.0,96,29.91,1.5,WNW,21.9,32.2,0.00,Snow,Light Snow,300,2013-03-06 00:56:00
7:56 PM,30.0,29.1,96,29.94,1.5,NNW,17.3,25.3,0.00,Snow,Light Snow,330,2013-03-06 01:56:00
8:56 PM,29.1,28.0,96,29.97,1.5,NNW,21.9,-,0.00,Snow,Light Snow,340,2013-03-06 02:56:00
9:56 PM,27.1,26.1,96,30.01,2.0,NNW,21.9,29.9,0.00,Snow,Light Snow,340,2013-03-06 03:56:00
10:21 PM,26.6,26.6,100,29.97,1.8,NNW,21.9,33.4,0.00,Snow,Light Snow,330,2013-03-06 04:21:00
10:33 PM,26.6,26.6,100,29.97,2.0,NNW,24.2,32.2,0.00,Snow,Light Snow,340,2013-03-06 04:33:00
10:56 PM,27.1,26.1,96,30.03,2.0,NNW,21.9,31.1,0.00,Snow,Light Snow,340,2013-03-06 04:56:00
11:31 PM,26.6,26.6,100,29.99,3.0,NNW,23.0,-,0.00,Snow,Light Snow,340,2013-03-06 05:31:00
11:56 PM,27.1,26.1,96,30.05,4.0,NNW,20.7,-,0.00,Snow,Light Snow,340,2013-03-06 05:56:00